{"data":{"norad_id":57611,"intl_designator":"2023-119K","name":"STARLINK-30052","alt_names":[],"object_type":"PAYLOAD","status":"ACTIVE","operator":null,"country":"US","launch_date":"2023-08-11","launch_site_code":"AFETR","launch_vehicle":null,"mission":null,"orbit_class":"UNKNOWN","rcs_meters":null,"size_class":null,"mass_kg":null,"dimensions":null,"purposes":["comms"],"wikipedia_slug":null,"has_3d_model":false,"image_url":null,"decayed_at":null,"tle_current":{"epoch":"2026-09-19T21:59:32.112960Z","epoch_age_seconds":178464,"freshness":"STALE","line1":"1 57611U 23119K   26262.91634390  .00004341  00000+0  16738-3 0  9998","line2":"2 57611  43.0045  64.4455 0002025 250.0336 110.0297 15.27538561172771","mean_motion":15.27538561,"eccentricity":0.0002025,"inclination_deg":43.0045,"raan_deg":64.4455,"arg_perigee_deg":250.0336,"mean_anomaly_deg":110.0297,"bstar":0.00016738,"rev_number":17277,"period_min":94.269305977933,"perigee_km":481.78376680647,"apogee_km":484.56259743023,"semimajor_km":6861.3101821184,"source":"CELESTRAK","updated_at":"2026-09-21T09:00:33.641798Z"}}}